Weather History for Brier Island, NS

Change the Weather History Date:

Wednesday, February 6, 2013

  Actual Average Record
Temperature  
Mean Temperature 26 °F -  
Max Temperature 34 °F - - ()
Min Temperature 18 °F - - ()
Degree Days  
Heating Degree Days 39    
Moisture  
Dew Point 18 °F    
Average Humidity 70    
Maximum Humidity 100    
Minimum Humidity 53    
Precipitation  
Precipitation 0.04 in - - ()
Sea Level Pressure  
Sea Level Pressure 30.02 in    
Wind  
Wind Speed 14 mph ()    
Max Wind Speed 31 mph    
Max Gust Speed 38 mph    
T = Trace of Precipitation, MM = Missing Value Source: Averaged Metar Reports

Daily Weather History Graph

Daily Weather History Graph

Search for Another Location

Airport:

Trip Planner

Search our weather history database for the weather conditions in past years. The results will help you decide how hot, cold, wet, or windy it might be!

Date:

Astronomy

Feb. 06, 2013 Rise Set
Actual Time 7:37 AM AST 5:42 PM AST
Civil Twilight 7:06 AM AST 6:12 PM AST
Nautical Twilight 6:32 AM AST 6:47 PM AST
Astronomical Twilight 5:58 AM AST 7:21 PM AST
Moon 4:21 AM AST (2/6) 1:52 PM AST (2/6)
Length of Visible Light 11h 06m
Length of Day
10h 05m
Waning Crescent, 17% of the Moon is Illuminated
Feb 6
Waning Crescent
Feb 10
New
Feb 17
First Quarter
Feb 25
Full
Mar 4
Last Quarter

Hourly Weather History & Observations

Time (AST) Temp. Windchill Dew Point Humidity Pressure Visibility Wind Dir Wind Speed Gust Speed Precip Events Conditions
12:00 AM 21.4 °F 11.9 °F 13.5 °F 72% 30.07 in - East 8.1 mph - N/A   Unknown
1:00 AM 21.2 °F 9.5 °F 11.5 °F 66% 30.06 in - ENE 11.5 mph - N/A   Unknown
2:00 AM 21 °F - 11 °F 53% 30.06 in - ENE 12.7 mph - -  
2:00 AM 21.0 °F 8.6 °F 10.9 °F 65% 30.06 in - ENE 12.7 mph - N/A   Unknown
3:00 AM 19.9 °F 6.7 °F 11.5 °F 70% 30.05 in - ENE 13.8 mph - N/A   Unknown
4:00 AM 19.6 °F 5.7 °F 11.3 °F 70% 30.04 in - ENE 15.0 mph - N/A   Unknown
5:00 AM 18.9 °F 5.9 °F 10.0 °F 69% 30.04 in - ENE 12.7 mph - N/A   Unknown
6:00 AM 19.0 °F 4.0 °F 10.8 °F 70% 30.04 in - ENE 17.3 mph - N/A   Unknown
7:00 AM 19.0 °F 3.2 °F 9.9 °F 67% 30.04 in - East 19.6 mph - N/A   Unknown
8:00 AM 19 °F - 12 °F 63% 30.05 in - ENE 15.0 mph - -  
8:00 AM 19.4 °F 5.5 °F 11.8 °F 72% 30.05 in - ENE 15.0 mph - N/A   Unknown
9:00 AM 20.7 °F 6.1 °F 13.5 °F 74% 30.04 in - East 17.3 mph - N/A   Unknown
10:00 AM 23.0 °F 8.7 °F 15.1 °F 72% 30.04 in - East 18.4 mph - N/A   Unknown
11:00 AM 23.7 °F 10.5 °F 15.3 °F 70% 30.03 in - East 16.1 mph - N/A   Unknown
12:00 PM 26.1 °F 14.0 °F 17.1 °F 69% 30.01 in - East 15.0 mph - N/A   Unknown
1:00 PM 29.1 °F 18.9 °F 18.7 °F 65% 29.99 in - ESE 12.7 mph - N/A   Unknown
2:00 PM 31 °F - 20 °F 53% 29.97 in - SE 11.5 mph - -  
2:00 PM 30.9 °F 21.7 °F 20.5 °F 65% 29.97 in - SE 11.5 mph - N/A   Unknown
3:00 PM 30.6 °F 21.2 °F 23.7 °F 76% 29.96 in - SSE 11.5 mph - N/A   Unknown
4:00 PM 32.0 °F 20.5 °F 25.3 °F 76% 29.95 in - SSE 18.4 mph - N/A   Unknown
5:00 PM 30.2 °F 17.1 °F 28.2 °F 92% 29.94 in - SE 21.9 mph - N/A   Unknown
6:00 PM 31.6 °F 20.7 °F 31.8 °F 100% 29.97 in - WSW 16.1 mph 26.5 mph 0.05 in   Unknown
7:00 PM 33.4 °F 22.3 °F 27.5 °F 79% 29.99 in - West 18.4 mph 28.8 mph N/A   Unknown
8:00 PM 34 °F - 26 °F 64% 30.02 in - WNW 23.0 mph - -  
8:00 PM 34.3 °F 22.3 °F 26.2 °F 72% 30.02 in - WNW 23.0 mph - N/A   Unknown
9:00 PM 33.6 °F 21.1 °F 25.7 °F 73% 30.04 in - WNW 24.2 mph 29.9 mph N/A   Unknown
10:00 PM 31.3 °F 16.7 °F 21.9 °F 68% 30.07 in - WNW 29.9 mph 36.8 mph N/A   Unknown
11:00 PM 28.9 °F 13.2 °F 18.9 °F 66% 30.10 in - WNW 31.1 mph 38.0 mph N/A   Unknown